Regional Weather Roundup
Issued by NWS

Home | Current Version | Previous Version | Graphics & Text | Print | Product List | Glossary On
Versions: 1 2 3 4 5 6 7 8 9 10 11 12 13 14 15 16 17 18 19 20 21 22 23 24 25 26 27 28 29 30 31 32 33 34 35 36 37 38 39 40 41 42 43 44 45 46 47 48 49
000
ASUS45 KSLC 291410
RWRUT

UTAH REGIONAL WEATHER ROUNDUP
NATIONAL WEATHER SERVICE SALT LAKE CITY UT
800 AM MDT MON JUN 29 2015

UTZ001>011-023>025-291500-

NORTHERN UTAH

CITY           SKY/WX    TMP DP  RH WIND       PRES   REMARKS
BRIGHAM CITY   SUNNY     76  45  32 N3        30.09R
HILL AFB       SUNNY     75  47  36 E17       30.12R
LOGAN          SUNNY     72  52  49 W5        30.12R
OGDEN          SUNNY     79  47  32 S5        30.08R
PROVO AIRPORT  MOSUNNY   75  46  35 CALM      30.12R
SALT LAKE CITY MOSUNNY   83  50  31 SE10      30.06R
VERNAL         SUNNY     78  45  30 NW3       30.21R
WENDOVER       SUNNY     81  43  26 SE5       30.06R
HEBER CITY     SUNNY     63  46  55 CALM      30.25R
WEST JORDAN    SUNNY     79  54  41 E7        30.11R

$$

UTZ012>022-026-027-291500-

SOUTHERN/CENTRAL UTAH

CITY           SKY/WX    TMP DP  RH WIND       PRES   REMARKS
BLANDING       MOSUNNY   74  44  33 CALM      30.34S
BRYCE CANYON   SUNNY     63  46  54 W3        30.39S
CEDAR CITY     SUNNY     75  45  34 CALM      30.22R
DELTA          SUNNY     80  41  25 S10       30.12S
HANKSVILLE     MOSUNNY   82  43  24 CALM      30.12R
MILFORD        SUNNY     78  45  30 SW15      30.14R
MOAB/CYNLANDS  SUNNY     84  45  25 SE8       30.11R
PRICE          SUNNY     83  38  20 E6        30.24R
ST GEORGE      SUNNY     84  48  28 SE7       30.04S
KANAB          SUNNY     70  50  49 N3        30.25R

$$

REGIONAL REPORTS     COLORADO/ARIZONA

CITY           SKY/WX    TMP DP  RH WIND       PRES   REMARKS
CRAIG, CO      SUNNY     64  49  57 CALM      30.30S
GRAND JUNCTION MOSUNNY   78  45  30 SE15      30.17R
RIFLE          SUNNY     70  49  47 CALM      30.25R
MONTROSE       PTSUNNY   70  48  45 CALM      30.28R
CORTEZ         SUNNY     68  48  48 CALM      30.28S
PAGE, AZ       SUNNY     82  48  30 CALM      30.12R
GRAND CANYON   SUNNY     63  49  60 CALM      30.32S
KINGMAN        SUNNY     83  54  36 SE6       30.08R
FLAGSTAFF      SUNNY     64  56  75 CALM      30.35R

$$

REGIONAL REPORTS    NEVADA/IDAHO/WYOMING

CITY           SKY/WX    TMP DP  RH WIND       PRES   REMARKS
LAS VEGAS, NV  PTSUNNY   91  49  23 SW6       29.91R
ELY            MOSUNNY   66  39  37 S9        30.28R
ELKO           PTSUNNY   71  47  42 CALM      30.17R
POCATELLO, ID  SUNNY     70  57  63 N5        30.11R
BURLEY         SUNNY     72  53  51 CALM      30.07R
EVANSTON, WY   MOSUNNY   67  43  41 E7        30.36R
ROCK SPRINGS   SUNNY     66  47  50 E5        30.36R
KEMMERER       SUNNY     70  43  37 NE12      30.40R

$$



USA.gov is the U.S. government's official web portal to all federal, state and local government web resources and services.